AAL2596 TAPA-KMIA

Flight info

Callsign AAL2596
Flight time 3h 0m
Altitude 36000
Route GABAR Y280 ACONY Y308 FEKKO/N0463F380 Y308 MADIZ VIICE2
Aircraft B738/M-SDE2E3FGHIRWXY/LB1

Departure

Time 2026-04-30 15:09
Airport V. C. Bird International Airport (TAPA)

Arrival

Time 2026-04-30 18:10
Airport Miami International Airport (KMIA)
Time Latitude Longitude Altitude Speed Heading
2026-04-30 14:46 17.14172 -61.78930 62 ft 0 kts 282°
2026-04-30 15:00 17.14169 -61.78917 62 ft 4 kts 288°
2026-04-30 15:01 17.14140 -61.78872 62 ft 3 kts 320°
2026-04-30 15:01 17.14124 -61.78857 60 ft 4 kts 310°
2026-04-30 15:01 17.14110 -61.78826 63 ft 2 kts 275°
2026-04-30 15:03 17.14103 -61.78859 63 ft 7 kts 247°
2026-04-30 15:04 17.14019 -61.79009 60 ft 14 kts 238°
2026-04-30 15:04 17.13793 -61.79094 60 ft 13 kts 188°
2026-04-30 15:05 17.13610 -61.79371 68 ft 20 kts 238°
2026-04-30 15:06 17.13443 -61.79656 67 ft 24 kts 238°
2026-04-30 15:06 17.13277 -61.79940 60 ft 22 kts 238°
2026-04-30 15:07 17.13120 -61.80206 63 ft 21 kts 238°
2026-04-30 15:07 17.12970 -61.80455 71 ft 20 kts 225°
2026-04-30 15:08 17.12893 -61.80585 70 ft 12 kts 41°
2026-04-30 15:08 17.13537 -61.79499 67 ft 143 kts 58°
2026-04-30 15:09 17.14681 -61.77550 1367 ft 152 kts 59°
2026-04-30 15:09 17.15959 -61.75518 2260 ft 198 kts 58°
2026-04-30 15:10 17.17773 -61.72857 2691 ft 253 kts 43°
2026-04-30 15:11 17.24042 -61.74558 5811 ft 284 kts 290°
2026-04-30 15:11 17.24683 -61.78671 7438 ft 289 kts 274°
2026-04-30 15:12 17.25170 -61.85108 9662 ft 301 kts 275°
2026-04-30 15:13 17.25537 -61.89558 10605 ft 327 kts 275°
2026-04-30 15:14 17.26466 -62.00064 11736 ft 383 kts 275°
2026-04-30 15:14 17.27220 -62.08387 13687 ft 386 kts 275°
2026-04-30 15:16 17.28497 -62.22553 16686 ft 396 kts 274°
2026-04-30 15:17 17.29531 -62.34120 18704 ft 406 kts 274°
2026-04-30 15:18 17.30852 -62.49009 20898 ft 417 kts 273°
2026-04-30 15:19 17.31658 -62.58125 22048 ft 422 kts 273°
2026-04-30 17:39 24.41624 -78.11104 37999 ft 433 kts 305°
2026-04-30 17:42 24.57778 -78.37552 37999 ft 430 kts 305°
2026-04-30 17:43 24.66074 -78.51190 38000 ft 428 kts 305°
2026-04-30 17:44 24.75913 -78.67415 37998 ft 423 kts 305°
2026-04-30 17:47 24.90505 -78.91599 37794 ft 413 kts 305°
2026-04-30 17:48 24.96912 -79.02198 34561 ft 429 kts 306°
2026-04-30 17:48 25.01995 -79.10643 31347 ft 452 kts 305°
2026-04-30 17:49 25.08893 -79.22142 28648 ft 440 kts 304°
2026-04-30 17:50 25.15494 -79.33172 26216 ft 424 kts 304°
2026-04-30 17:51 25.20291 -79.41202 24614 ft 408 kts 303°
2026-04-30 17:52 25.24844 -79.48835 23276 ft 391 kts 303°
2026-04-30 17:53 25.32144 -79.61104 20782 ft 373 kts 303°
2026-04-30 17:54 25.37709 -79.70479 18872 ft 358 kts 303°
2026-04-30 17:55 25.43307 -79.79369 16921 ft 347 kts 305°
2026-04-30 17:56 25.48797 -79.87900 15060 ft 336 kts 305°
2026-04-30 17:57 25.52798 -79.94148 13703 ft 326 kts 305°
2026-04-30 17:58 25.56668 -80.00202 12675 ft 308 kts 305°
2026-04-30 17:59 25.61281 -80.07426 11877 ft 277 kts 305°
2026-04-30 18:00 25.65608 -80.14250 10611 ft 272 kts 301°
2026-04-30 18:00 25.68035 -80.19993 9428 ft 277 kts 294°
2026-04-30 18:01 25.69663 -80.23886 8667 ft 280 kts 295°
2026-04-30 18:02 25.71193 -80.29949 7767 ft 274 kts 266°
2026-04-30 18:02 25.70859 -80.36202 6915 ft 270 kts 266°
2026-04-30 18:03 25.70558 -80.42376 6031 ft 265 kts 266°
2026-04-30 18:04 25.71215 -80.48259 5118 ft 263 kts 309°
2026-04-30 18:05 25.77059 -80.52310 4450 ft 233 kts 360°
2026-04-30 18:06 25.78599 -80.46991 2794 ft 216 kts 107°
2026-04-30 18:07 25.78233 -80.40749 1750 ft 181 kts 89°
2026-04-30 18:08 25.78368 -80.37014 966 ft 146 kts 89°
2026-04-30 18:09 25.78565 -80.32565 305 ft 143 kts 89°
2026-04-30 18:10 25.78722 -80.29284 14 ft 28 kts 67°
2026-04-30 18:11 25.79000 -80.28877 14 ft 16 kts 358°
2026-04-30 18:11 25.79353 -80.28888 14 ft 19 kts 358°
2026-04-30 18:12 25.79580 -80.28697 14 ft 17 kts 76°
2026-04-30 18:13 25.79639 -80.28460 15 ft 13 kts 42°
2026-04-30 18:13 25.79674 -80.28449 14 ft 0 kts
2026-04-30 18:14 25.79729 -80.28449 16 ft 1 kts 357°
2026-04-30 18:15 25.79730 -80.28449 14 ft 0 kts 357°